NW6UP Weather Reports


time (UTC)temp
C
wind
direction
speed
KPH
gust
KPH
rain 1hr
cm
rain 24hr
cm
rain mn
cm
humidity
%
barometer
mb
20260503204425 19 360 3.2 3.2 0.00 0.00 0.00 47 1011.8
20260503202428 19 0 0.0 6.4 0.00 0.00 0.00 48
20260503200425 19 135 8.0 3.2 0.00 0.00 0.00 47
20260503194427 19 143 3.2 9.7 0.00 0.00 0.00 47 1012.3
20260503192425 19 159 4.8 6.4 0.00 0.00 0.00 45 1012.3
20260503190425 19 360 1.6 6.4 0.00 0.00 0.00 45
20260503180425 17 164 0.0 1.6 0.00 0.00 0.00 55
20260503174425 17 0 0.0 6.4 0.00 0.00 0.00 58
20260503172427 17 0 0.0 3.2 0.00 0.00 0.00 59
20260503170425 16 0 0.0 3.2 0.00 0.00 0.00 66
20260503150425 14 0 0.0 0.0 0.00 0.00 0.00 66 1011.6
20260503130426 12 0 0.0 0.0 0.00 0.00 0.00 75 1010.6
20260503110425 12 0 0.0 0.0 0.00 0.00 0.00 76 1010.7
20260503090426 13 0 0.0 0.0 0.00 0.00 0.00 75 1011.3
20260503080426 13 0 0.0 0.0 0.00 0.00 0.00 74 1011.7
20260503072425 13 0 0.0 0.0 0.00 0.00 0.00 74
20260503070425 13 0 0.0 0.0 0.00 0.00 0.00 73 1011.6
20260503054426 13 342 0.0 3.2 0.00 0.00 0.00 72
20260503052426 13 0 0.0 0.0 0.00 0.00 0.00 71
20260503050426 14 0 0.0 1.6 0.00 0.00 0.00 71 1011.5
20260503042425 14 0 0.0 3.2 0.00 0.00 0.00 70 1010.9
20260503040425 14 100 1.6 4.8 0.00 0.00 0.00 69 1010.8
20260503034426 15 112 0.0 3.2 0.00 0.00 0.00 68
20260503032425 15 0 0.0 3.2 0.00 0.00 0.00 66
20260503030425 15 22 0.0 1.6 0.00 0.00 0.00 65 1010.3
20260503024425 16 360 1.6 3.2 0.00 0.00 0.00 63
20260503020425 17 202 1.6 4.8 0.00 0.00 0.00 62
20260503014428 17 360 1.6 1.6 0.00 0.00 0.00 62
20260503012425 18 360 3.2 4.8 0.00 0.00 0.00 60 1010.2
20260503010425 18 72 1.6 4.8 0.00 0.00 0.00 58
20260503004426 19 40 1.6 4.8 0.00 0.00 0.00 56 1010.4
20260503002425 20 360 3.2 3.2 0.00 0.00 0.00 56 1010.3
20260503000425 20 337 3.2 3.2 0.00 0.00 0.00 54 1010.3
20260502234426 20 41 1.6 3.2 0.00 0.00 0.00 55 1010.4
20260502232432 20 135 3.2 4.8 0.00 0.00 0.00 55 1010.9
20260502230425 21 90 1.6 3.2 0.00 0.00 0.00 53 1011.2
20260502224425 21 26 1.6 3.2 0.00 0.00 0.00 54 1011.3
20260502222425 21 360 1.6 4.8 0.00 0.00 0.00 53 1011.4
20260502220425 22 37 1.6 4.8 0.00 0.00 0.00 52 1011.5
20260502214426 22 85 1.6 3.2 0.00 0.00 0.00 52 1011.5
20260502212426 21 112 3.2 3.2 0.00 0.00 0.00 55 1012.0